DateTimeUTC,F1_A11,F1_S11,BsB_S11,BsG_S11,BsR_S11,BbsB_S11,BbsG_S11,BbsR_S11,BaB_A11,BaG_A11,BaR_A11,Tu_S11,T_S11,Uu_S11,U_S11,P_S11,T1_A11
2021-09-13T22:00:00Z,00000200,21000000,,,,,,,-000.33,-000.35,-000.04,18.6,25.7,00.6,00.4,0661.0,31.1
2021-09-13T22:01:00Z,00000200,21000000,,,,,,,-000.25,0000.06,-000.61,18.6,25.7,00.6,00.4,0661.0,31.1
2021-09-13T22:02:00Z,00000200,21000000,,,,,,,-000.04,-000.07,-000.06,18.6,25.7,00.6,00.4,0661.0,31.1
2021-09-13T22:03:00Z,00000200,61000000,,,,,,,-000.20,-000.29,0000.29,18.6,25.7,00.6,00.4,0661.0,31.1
2021-09-13T22:04:00Z,00000200,41000000,0000.67,0000.85,0000.41,0000.30,0000.14,0000.17,0000.34,0000.18,-000.49,18.7,25.5,00.5,00.3,0662.0,31.1
2021-09-13T22:05:00Z,00000200,01000000,0001.39,0000.43,0000.52,-000.12,0000.10,0000.29,0000.03,0000.00,0000.58,18.7,25.4,00.5,00.3,0662.1,31.1
2021-09-13T22:06:00Z,00000200,01000000,0000.43,0000.61,0000.12,0000.25,0000.10,0000.18,0000.27,0000.23,0000.05,18.7,25.4,00.6,00.4,0662.1,31.1
2021-09-13T22:07:00Z,00000200,01000000,0000.68,0000.92,-000.10,0000.57,0000.03,-000.25,-000.12,0000.28,0000.38,18.7,25.4,00.6,00.4,0662.1,31.1
2021-09-13T22:08:00Z,00000200,01000000,0000.78,0000.43,0000.37,-000.11,-000.00,0000.13,0000.67,0000.14,-000.11,18.7,25.4,00.6,00.4,0662.1,31.1
2021-09-13T22:09:00Z,00000200,01000000,0001.39,0000.70,0000.32,0000.27,0000.36,0000.20,-000.37,0000.18,0000.36,18.7,25.3,00.5,00.3,0662.1,31.1
2021-09-13T22:10:00Z,00000200,01000000,0001.82,0000.77,0000.30,0000.29,0000.16,0000.17,0000.32,0000.25,0000.13,18.7,25.3,00.6,00.4,0662.1,31.1
2021-09-13T22:11:00Z,00000200,01000000,0000.72,0000.88,0000.51,-000.11,-000.02,0000.24,0000.95,0001.05,0000.59,18.7,25.3,00.7,00.4,0662.1,31.1
2021-09-13T22:12:00Z,00000200,01000000,0000.36,0000.61,0000.33,-000.52,0000.15,0000.17,0000.01,0000.06,0000.19,18.7,25.3,00.6,00.4,0662.1,31.1
2021-09-13T22:13:00Z,00000200,01000000,0001.13,0000.80,0000.27,-000.31,0000.31,-000.20,0000.62,0000.14,0000.22,18.8,25.4,00.6,00.4,0662.1,31.1
2021-09-13T22:14:00Z,00000200,01000000,0000.76,0000.77,0000.47,-000.06,0000.32,0000.06,0000.29,0000.62,0000.44,18.9,25.5,00.6,00.4,0662.1,31.1
2021-09-13T22:15:00Z,00000200,01000000,0000.89,0000.61,0000.29,0000.47,-000.06,-000.08,0000.21,-000.10,0000.11,18.9,25.5,00.6,00.4,0662.1,31.1
2021-09-13T22:16:00Z,00000200,01000000,0001.77,0000.38,0000.34,0000.29,0000.04,-000.08,0000.10,0000.37,0000.22,18.9,25.5,00.7,00.5,0662.0,31.1
2021-09-13T22:17:00Z,00000200,01000000,0001.03,0000.85,0000.14,-000.09,0000.37,-000.09,0000.46,0000.27,0000.11,18.9,25.5,00.8,00.5,0662.1,31.1
2021-09-13T22:18:00Z,00000200,01000000,0000.75,0000.91,0000.54,-000.22,0000.22,-000.11,0000.25,0000.13,-000.19,18.9,25.4,00.7,00.5,0662.0,31.1
2021-09-13T22:19:00Z,00000200,01000000,0000.89,0001.06,0000.49,0000.95,-000.07,-000.09,0000.34,0000.32,0000.39,18.8,25.4,00.8,00.5,0662.0,31.1
2021-09-13T22:20:00Z,00000200,01000000,0000.54,0000.28,0000.46,-000.44,-000.08,0000.19,-000.14,0000.06,-000.05,18.8,25.4,00.9,00.6,0661.9,31.1
2021-09-13T22:21:00Z,00000200,01000000,0001.14,0000.65,0000.51,-000.53,0000.31,0000.09,0000.59,0000.44,0000.33,18.8,25.4,00.9,00.6,0661.9,31.1
2021-09-13T22:22:00Z,00000200,01000000,0001.60,0000.47,0000.36,0000.09,0000.06,-000.25,0000.21,0000.18,0000.06,18.8,25.4,00.8,00.6,0661.9,31.1
2021-09-13T22:23:00Z,00000200,01000000,0001.26,0000.91,0000.27,-000.24,0000.07,-000.20,0000.22,0000.05,0000.03,18.8,25.4,01.0,00.7,0661.9,31.1
2021-09-13T22:24:00Z,00000200,01000000,0001.16,0000.76,0000.27,0000.01,-000.02,0000.06,0000.33,0000.11,0000.51,18.8,25.4,00.8,00.5,0661.9,31.1
2021-09-13T22:25:00Z,00000200,01000000,0000.85,0000.57,0000.55,0000.22,0000.23,0000.20,0000.32,0000.52,0000.12,18.8,25.4,00.9,00.6,0661.9,31.1
2021-09-13T22:26:00Z,00000200,01000000,0000.76,0000.52,0000.36,0000.33,0000.06,-000.16,0000.53,0000.55,0000.41,18.8,25.4,00.9,00.6,0662.0,31.1
2021-09-13T22:27:00Z,00000200,01000000,0001.00,0000.39,0000.31,0000.37,0000.04,0000.08,0000.49,0000.08,0000.22,18.8,25.4,00.9,00.6,0662.0,31.1
2021-09-13T22:28:00Z,00000200,01000000,0000.87,0000.94,0000.12,0000.11,0000.29,0000.02,0000.01,-000.05,0000.13,18.9,25.4,01.0,00.6,0661.9,31.1
2021-09-13T22:29:00Z,00000200,01000000,0000.84,0000.84,0000.27,0000.63,0000.17,-000.21,0000.08,0000.59,0000.06,18.9,25.4,01.0,00.7,0662.0,31.1
2021-09-13T22:30:00Z,00000200,01000000,0001.01,0000.73,0000.30,0000.18,0000.42,-000.03,0000.46,0000.37,0000.28,18.9,25.4,00.9,00.6,0661.9,31.1
2021-09-13T22:31:00Z,00000200,01000000,0001.39,0000.32,0000.26,0000.63,0000.11,-000.10,-000.11,0000.14,-000.13,18.9,25.4,00.9,00.6,0661.9,31.1
2021-09-13T22:32:00Z,00000200,01000000,0000.17,0000.85,0000.07,0000.75,0000.06,-000.00,0000.36,0000.07,0000.53,18.9,25.4,00.9,00.6,0662.0,31.1
2021-09-13T22:33:00Z,00000200,01000000,0000.71,0000.49,0000.72,0000.70,-000.04,0000.26,0000.19,0000.03,0000.07,18.9,25.4,01.1,00.7,0662.0,31.1
2021-09-13T22:34:00Z,00000200,01000000,0001.15,0000.78,0000.06,0000.45,0000.25,-000.37,-000.16,0000.05,-000.16,18.9,25.4,01.0,00.7,0661.9,31.1
2021-09-13T22:35:00Z,00000200,01000000,0002.00,0000.66,0000.31,0000.14,-000.23,0000.04,0000.16,0000.10,0000.22,18.9,25.4,01.0,00.7,0661.9,31.1
2021-09-13T22:36:00Z,00000200,01000000,0001.02,0000.69,0000.18,0000.16,0000.21,-000.01,0000.25,0000.08,0000.09,18.9,25.4,01.0,00.7,0661.8,31.1
2021-09-13T22:37:00Z,00000200,01000000,0001.39,0000.96,0000.26,0000.49,0000.22,0000.24,0000.38,0000.73,-000.03,18.8,25.4,01.0,00.7,0661.8,31.1
2021-09-13T22:38:00Z,00000200,01000000,0000.64,0000.46,0000.38,-000.41,0000.33,-000.19,0000.54,-000.31,0000.17,18.8,25.4,00.9,00.6,0661.8,31.1
2021-09-13T22:39:00Z,00000200,01000000,0001.55,0000.65,0000.28,-000.15,0000.05,0000.14,-000.12,0000.43,0000.54,18.8,25.4,01.0,00.7,0661.9,31.1
2021-09-13T22:40:00Z,00000200,01000000,0001.01,0000.65,-000.07,0000.19,-000.02,-000.40,-000.02,0000.27,0000.00,18.8,25.4,01.1,00.7,0661.9,31.1
2021-09-13T22:41:00Z,00000200,01000000,0001.66,0000.80,0000.36,0000.29,0000.13,-000.28,0000.55,-000.11,0000.02,18.8,25.3,01.0,00.6,0661.9,31.1
2021-09-13T22:42:00Z,00000200,01000000,0000.79,0000.60,0000.52,0000.18,0000.32,-000.16,0000.25,0000.69,0000.45,18.8,25.4,01.0,00.7,0661.8,31.1
2021-09-13T22:43:00Z,00000200,01000000,0001.30,0000.34,0000.29,0000.15,0000.01,-000.04,0000.46,-000.19,0000.31,18.8,25.4,01.0,00.7,0661.8,31.1
2021-09-13T22:44:00Z,00000200,01000000,0001.55,0000.57,0000.58,0000.32,-000.22,0000.18,0000.09,0000.78,-000.10,18.8,25.4,01.1,00.7,0661.7,31.1
2021-09-13T22:45:00Z,00000200,01000000,0000.53,0000.64,0000.06,0000.38,-000.00,0000.11,0000.39,0000.04,0000.56,18.8,25.4,01.1,00.7,0661.8,31.1
2021-09-13T22:46:00Z,00000200,01000000,0001.24,0000.51,0000.79,0000.23,-000.31,0000.09,0000.04,0000.12,-000.26,18.8,25.4,01.2,00.8,0661.7,31.1
2021-09-13T22:47:00Z,00000200,01000000,0000.72,0000.90,0000.29,0000.16,0000.35,0000.17,0000.23,0000.27,0000.43,18.8,25.4,01.1,00.8,0661.7,31.1
2021-09-13T22:48:00Z,00000200,01000000,0000.81,0000.67,0000.35,0000.42,-000.14,-000.25,0000.23,0000.36,0000.19,18.8,25.3,01.1,00.8,0661.8,31.1
2021-09-13T22:49:00Z,00000200,01000000,0001.22,0000.63,0000.37,0000.19,0000.12,0000.14,0000.35,0000.04,0000.47,18.8,25.3,01.1,00.7,0661.8,31.1
2021-09-13T22:50:00Z,00000200,01000000,0000.69,0000.44,0000.44,-000.04,-000.10,0000.15,0000.15,0000.43,-000.28,18.8,25.3,01.2,00.8,0661.8,31.1
2021-09-13T22:51:00Z,00000200,01000000,0000.30,0000.32,0000.27,-000.47,-000.07,0000.21,0000.13,0000.03,0000.22,18.8,25.3,01.2,00.8,0661.8,31.1
2021-09-13T22:52:00Z,00000200,01000000,-000.05,0000.64,0000.39,-000.02,-000.06,-000.06,0000.74,0000.31,0000.39,18.8,25.3,01.1,00.8,0661.8,31.1
2021-09-13T22:53:00Z,00000200,01000000,0001.06,0000.51,0000.27,-000.12,-000.10,0000.26,-000.04,0000.25,-000.21,18.8,25.3,01.2,00.8,0661.8,31.1
2021-09-13T22:54:00Z,00000200,01000000,0001.43,0000.86,0000.37,-000.14,0000.13,0000.16,0000.05,-000.20,0000.65,18.8,25.3,01.2,00.8,0661.7,31.1
2021-09-13T22:55:00Z,00000200,01000000,0001.09,0000.62,0000.46,0000.39,0000.02,-000.17,0000.57,0000.52,-000.14,18.8,25.3,01.2,00.8,0661.8,31.1
2021-09-13T22:56:00Z,00000200,01000000,0001.58,0000.83,0000.27,0000.50,0000.01,0000.24,0000.27,0000.43,0000.31,18.8,25.3,01.2,00.8,0661.7,31.1
2021-09-13T22:57:00Z,00000200,41000000,,,,,,,0000.02,-000.04,0000.51,18.9,25.4,01.5,01.0,0661.6,31.1
2021-09-13T22:58:00Z,00000200,61000000,,,,,,,0000.11,0000.30,-000.37,18.7,25.5,01.0,00.6,0660.8,31.1
2021-09-13T22:59:00Z,00000200,21000000,,,,,,,-000.03,-000.01,0000.11,18.7,25.6,00.9,00.6,0660.8,31.1
